STARLINK-31432, 59932

Orbit data source: Space-Track

STARLINK-31432, 59932 is a payload satellite owned by SpaceX/Seattle (US) in LEO that was launched on Sat, 01 Jun 2024 UTC via an FALCON 9 launch vehicle from the Air Force Eastern Test Range (AFETR). Payload-class satellites include a variety of spacecraft equipped with specific instruments for various scientific and technological missions. These include communications satellites like Starlink; space stations such as the ISS; scientific satellites like the Hubble; Earth observation satellites from companies like Planet Labs, Umbra, and HawkEye 360; GPS; miniature CubeSats for education and research; and military/defense satellites.

Loading next visibility...
Identifier
59932, 2024-106L
Orbit
LEO
Last TLE update
15 hours ago
Origin
Manufacturer
SpaceX/Seattle
Mission
Operational spacecraft
Bus & Motor
STARLINK V2M, Unknown motor
Mass
730 kg wet, ~700 kg dry
Launch date (UTC)
2024-06-01 (1 year ago)
Launch vehicle
FALCON 9
Launch site
Air Force Eastern Test Range (AFETR)
Object type
Payload
Rocket body
Debris
Shape & HBR
Unknown
Radar Cross Section
Large (>1 m²)

Expand to show TLE details & history

TLE from 15 hours ago
0 STARLINK-31432
1 59932U 24106L   25181.78038326 -.00140583  00000-0 -52086-2 0  9991
2 59932  43.0002 315.4314 0000080 203.4161 156.6686 15.27507459 61993
Epoch: 2025-06-30T18:43Z
TLE epoch observation values (Epoch: 2025-06-30T18:43:45.113Z)
Latitude
-0.00009°
Longitude
115.40805°
Altitude
483.092 km
Speed
7.626 km/s
True Right ascension
21h 01m 43s
True Declination
0° 00' 00"
Sunlit
Object was in full shadow at epoch
Visualization orbit readout
Latitude
-40.78708°
Longitude
44.84642°
Altitude
496.173 km
Speed
7.617 km/s
Apparent Right ascension
13h 10m 23s
Apparent Declination
-52° 19' 59"
Sunlit
Object is in full shadow
Visualization observer readout
Local Sidereal Time
21:44:46
Azimuth
232.799° WSW
Elevation
-53.16°
Doppler factor
1
Orbital elements
Apogee altitude
485.266 km
Perigee altitude
485.156 km
Semi-major axis
6,863.348 km
Eccentricity
0.00001
Inclination
43.0002°
RAAN
315.4314°
Arg. of periapsis
203.4161°
True anomaly
Unknown
Mean anomaly
156.6686°
Eccentric anomaly
Unknown
Mean motion
3.81715 °/min
Orbital period
94.31 mins
BSTAR
-0.0052086
Loading maneuver chart data...
Loading SW <> Apogee altitude chart data...
Loading historical data...
Loading historical data...
Loading historical data...
Loading historical data...
Loading historical data...
Loading historical data...
Loading historical data...

STARLINK-31432 Visibility forecast

Observer location: undefined°, undefined°

Span
Click to sort rows by Start time (UTC) header in descending order
Start Az.
Max El. time (UTC)
Max El. Az.
Max El.
End time (UTC)
End Az.
5 mins2025-07-01 12:12:22.912Z212.48° SW2025-07-01 12:14:22.912Z170.964° S30.524°2025-07-01 12:17:22.912Z88.987° E
6 mins2025-07-01 13:51:22.912Z268.251° W2025-07-01 13:53:22.912Z309.975° NW41.296°2025-07-01 13:57:22.912Z70.703° E
6 mins2025-07-01 15:30:22.912Z291.878° WNW2025-07-01 15:33:22.912Z32.591° NE37.65°2025-07-01 15:36:22.912Z83.052° E
6 mins2025-07-01 17:09:22.912Z282.969° WNW2025-07-01 17:12:22.912Z165.646° S41.702°2025-07-01 17:15:22.912Z120.777° SE
|